Peoria, IL

4:01 PM CDT on September 19, 2017 (GMT -0500)
Greater Peoria Regional

Weather History for KPIA - October, 2014

Change the Weather History Date:

Saturday, October 25, 2014

  Actual Average Record
Temperature  
Mean Temperature 65 °F 51 °F  
Max Temperature 78 °F 61 °F 81 °F (1939)
Min Temperature 52 °F 41 °F 21 °F (1887)
Degree Days  
Heating Degree Days 0 14  
Month to date heating degree days 214 265  
Since 1 July heating degree days 292 355  
Cooling Degree Days 0 0  
Month to date cooling degree days 4 12  
Year to date cooling degree days 1151 1036  
Growing Degree Days 15 (Base 50)    
Moisture  
Dew Point 47 °F    
Average Humidity 59    
Maximum Humidity 93    
Minimum Humidity 24    
Precipitation  
Precipitation 0.00 in 0.10 in 1.13 in (1932)
Month to date precipitation 2.33 2.25  
Year to date precipitation 37.39 30.35  
Snow  
Snow 0.00 in 0.00 in T in (1962)
Month to date snowfall T 0.0  
Since 1 July snowfall T 0.0  
Since 1 September snowfall T 0.0  
Snow Depth 0.00 in    
Sea Level Pressure  
Sea Level Pressure 29.99 in    
Wind  
Wind Speed 4 mph (West)    
Max Wind Speed 10 mph    
Max Gust Speed 16 mph    
Visibility 6 miles    
Events Fog    
T = Trace of Precipitation, MM = Missing Value Source: NWS Daily Summary

Daily Weather History Graph

Daily Weather History Graph

Search for Another Location

Airport or City:

Trip Planner

Search our weather history database for the weather conditions in past years. The results will help you decide how hot, cold, wet, or windy it might be!

Date:

Astronomy

Oct. 25, 2014 Rise Set
Actual Time 7:20 AM CDT 6:04 PM CDT
Civil Twilight 6:52 AM CDT 6:32 PM CDT
Nautical Twilight 6:20 AM CDT 7:04 PM CDT
Astronomical Twilight 5:49 AM CDT 7:35 PM CDT
Moon 9:00 AM CDT (10/25) 7:26 PM CDT (10/25)
Length of Visible Light 11h 39m
Length of Day
10h 43m
Waxing Crescent, 3% of the Moon is Illuminated
Oct 25
Waxing Crescent
Oct 30
First Quarter
Nov 6
Full
Nov 14
Last Quarter
Nov 22
New

Hourly Weather History & Observations

Time (CDT) Temp. Dew Point Humidity Pressure Visibility Wind Dir Wind Speed Gust Speed Precip Events Conditions
12:54 AM 57.0 °F 50.0 °F 77% 29.95 in 10.0 mi Calm Calm - N/A   Partly Cloudy
1:09 AM 57.9 °F 50.0 °F 75% 29.95 in 10.0 mi Calm Calm - N/A   Mostly Cloudy
1:54 AM 57.9 °F 51.1 °F 78% 29.95 in 9.0 mi WSW 4.6 mph - N/A   Overcast
2:20 AM 55.9 °F 48.9 °F 77% 29.95 in 9.0 mi SW 3.5 mph - N/A   Partly Cloudy
2:54 AM 55.0 °F 48.9 °F 80% 29.94 in 9.0 mi SSW 4.6 mph - N/A   Clear
3:54 AM 52.0 °F 48.9 °F 89% 29.95 in 6.0 mi Calm Calm - N/A   Partly Cloudy
4:08 AM 52.0 °F 48.0 °F 86% 29.96 in 6.0 mi Calm Calm - N/A   Mostly Cloudy
4:19 AM 53.1 °F 48.9 °F 86% 29.96 in 6.0 mi Calm Calm - N/A   Overcast
4:42 AM 53.1 °F 48.9 °F 86% 29.96 in 8.0 mi Calm Calm - N/A   Mostly Cloudy
4:54 AM 53.1 °F 48.9 °F 86% 29.96 in 8.0 mi Calm Calm - N/A   Mostly Cloudy
5:09 AM 54.0 °F 48.9 °F 83% 29.96 in 9.0 mi Calm Calm - N/A   Overcast
5:49 AM 55.4 °F 51.8 °F 88% 29.97 in 7.0 mi SSW 3.5 mph - N/A   Overcast
5:54 AM 55.0 °F 51.1 °F 86% 29.97 in 6.0 mi SW 3.5 mph - N/A   Overcast
6:20 AM 55.0 °F 52.0 °F 89% 29.98 in 0.5 mi Calm Calm - N/A Fog Fog
6:36 AM 54.0 °F 52.0 °F 93% 29.98 in 0.1 mi SW 3.5 mph - N/A Fog Fog
6:54 AM 55.0 °F 52.0 °F 89% 29.98 in 0.1 mi Calm Calm - N/A Fog Fog
7:07 AM 55.0 °F 52.0 °F 89% 29.98 in 0.1 mi SW 4.6 mph - N/A Fog Fog
7:22 AM 55.0 °F 53.1 °F 93% 29.98 in 0.1 mi WSW 4.6 mph - N/A Fog Fog
7:54 AM 55.9 °F 53.1 °F 90% 29.99 in 0.1 mi SW 5.8 mph - N/A Fog Fog
8:54 AM 55.0 °F 53.1 °F 93% 30.01 in 0.1 mi West 4.6 mph - N/A Fog Fog
9:37 AM 55.9 °F 53.1 °F 90% 30.03 in 0.2 mi West 4.6 mph - N/A Fog Fog
9:54 AM 55.9 °F 53.1 °F 90% 30.02 in 0.2 mi West 4.6 mph - N/A Fog Fog
10:01 AM 55.9 °F 53.1 °F 90% 30.02 in 0.5 mi West 5.8 mph - N/A Fog Fog
10:24 AM 57.0 °F 54.0 °F 89% 30.03 in 3.0 mi WNW 4.6 mph - N/A   Overcast
10:54 AM 59.0 °F 55.0 °F 87% 30.03 in 6.0 mi NW 5.8 mph - N/A   Scattered Clouds
11:54 AM 66.0 °F 53.1 °F 63% 30.03 in 10.0 mi West 6.9 mph - N/A   Clear
12:54 PM 71.1 °F 52.0 °F 51% 30.01 in 10.0 mi WNW 5.8 mph - N/A   Clear
1:54 PM 75.9 °F 46.9 °F 36% 30.00 in 10.0 mi Variable 6.9 mph - N/A   Clear
2:54 PM 78.1 °F 42.1 °F 28% 29.99 in 10.0 mi NNW 8.1 mph - N/A   Clear
3:54 PM 77.0 °F 37.9 °F 24% 29.99 in 10.0 mi NW 9.2 mph - N/A   Clear
4:54 PM 75.0 °F 37.0 °F 25% 29.99 in 10.0 mi NW 6.9 mph - N/A   Clear
5:54 PM 71.1 °F 37.9 °F 30% 29.99 in 10.0 mi WNW 3.5 mph - N/A   Clear
6:54 PM 66.9 °F 37.9 °F 34% 30.00 in 10.0 mi NW 4.6 mph - N/A   Clear
7:54 PM 62.1 °F 39.9 °F 44% 30.01 in 10.0 mi WNW 3.5 mph - N/A   Clear
8:54 PM 62.1 °F 37.0 °F 39% 30.02 in 10.0 mi NW 4.6 mph - N/A   Clear
9:54 PM 60.1 °F 37.0 °F 42% 30.03 in 10.0 mi NW 3.5 mph - N/A   Clear
10:54 PM 57.9 °F 37.9 °F 47% 30.03 in 10.0 mi NW 5.8 mph - N/A   Clear
11:54 PM 57.0 °F 35.1 °F 44% 30.03 in 10.0 mi North 3.5 mph - N/A   Clear